Bradford, PA

6:28 AM EDT on April 28, 2017 (GMT -0400)
Bradford Regional

Weather History for KBFD - November, 2011

Change the Weather History Date:

Thursday, November 3, 2011

  Actual Average Record
Temperature  
Mean Temperature 46 °F 41 °F  
Max Temperature 54 °F 51 °F 72 °F (1961)
Min Temperature 37 °F 32 °F 16 °F (1984)
Degree Days  
Heating Degree Days 20 19  
Month to date heating degree days 56  
Since 1 July heating degree days 1049  
Cooling Degree Days 0 0  
Month to date cooling degree days 0  
Year to date cooling degree days 193  
Moisture  
Dew Point 34 °F    
Average Humidity 60    
Maximum Humidity 86    
Minimum Humidity 45    
Precipitation  
Precipitation 0.00 in 0.12 in 1.44 in (1970)
Month to date precipitation 0.35  
Year to date precipitation 37.65  
Sea Level Pressure  
Sea Level Pressure 30.04 in    
Wind  
Wind Speed 4 mph (SSW)    
Max Wind Speed 8 mph    
Max Gust Speed -    
Visibility 10 miles    
Events      
T = Trace of Precipitation, MM = Missing Value Source: NWS Daily Summary

Daily Weather History Graph

Daily Weather History Graph

Search for Another Location

Airport or City:

Trip Planner

Search our weather history database for the weather conditions in past years. The results will help you decide how hot, cold, wet, or windy it might be!

Date:

Astronomy

Nov. 03, 2011 Rise Set
Actual Time 7:48 AM EDT 6:06 PM EDT
Civil Twilight 7:19 AM EDT 6:35 PM EDT
Nautical Twilight 6:46 AM EDT 7:08 PM EDT
Astronomical Twilight 6:14 AM EDT 7:41 PM EDT
Moon 2:34 PM EDT (11/3) 12:53 AM EDT (11/3)
Length of Visible Light 11h 15m
Length of Day
10h 17m
First Quarter, 60% of the Moon is Illuminated
Nov 3
First Quarter
Nov 10
Full
Nov 18
Last Quarter
Nov 25
New
Dec 2
First Quarter

Hourly Weather History & Observations

Time (EDT) Temp. Windchill Dew Point Humidity Pressure Visibility Wind Dir Wind Speed Gust Speed Precip Events Conditions
12:53 AM 48.0 °F - 33.1 °F 56% 30.14 in 10.0 mi SSE 3.5 mph - N/A   Clear
1:53 AM 48.0 °F - 33.1 °F 56% 30.12 in 10.0 mi SSW 4.6 mph - N/A   Clear
2:53 AM 48.0 °F - 32.0 °F 54% 30.11 in 10.0 mi South 5.8 mph - N/A   Clear
3:53 AM 46.9 °F - 32.0 °F 56% 30.09 in 10.0 mi South 4.6 mph - N/A   Clear
4:53 AM 46.9 °F - 32.0 °F 56% 30.09 in 10.0 mi South 3.5 mph - N/A   Clear
5:53 AM 45.0 °F - 32.0 °F 60% 30.08 in 10.0 mi Calm Calm - N/A   Clear
6:53 AM 43.0 °F 41.3 °F 30.9 °F 62% 30.08 in 10.0 mi South 3.5 mph - N/A   Clear
7:53 AM 37.9 °F 35.5 °F 30.0 °F 73% 30.09 in 10.0 mi South 3.5 mph - N/A   Clear
8:53 AM 46.0 °F - 30.9 °F 56% 30.09 in 10.0 mi Calm Calm - N/A   Clear
9:53 AM 51.1 °F - 30.9 °F 46% 30.06 in 10.0 mi SSW 4.6 mph - N/A   Clear
10:53 AM 52.0 °F - 30.9 °F 45% 30.04 in 10.0 mi SSW 6.9 mph - N/A   Clear
11:53 AM 52.0 °F - 32.0 °F 47% 30.05 in 10.0 mi SW 5.8 mph - N/A   Clear
12:53 PM 53.1 °F - 34.0 °F 48% 30.02 in 10.0 mi Variable 3.5 mph - N/A   Clear
1:53 PM 53.1 °F - 34.0 °F 48% 30.00 in 10.0 mi West 4.6 mph - N/A   Clear
2:53 PM 53.1 °F - 34.0 °F 48% 29.97 in 10.0 mi Variable 3.5 mph - N/A   Clear
3:53 PM 54.0 °F - 34.0 °F 47% 29.96 in 10.0 mi Variable 4.6 mph - N/A   Clear
4:53 PM 54.0 °F - 34.0 °F 47% 29.96 in 10.0 mi WSW 3.5 mph - N/A   Clear
5:53 PM 48.0 °F - 35.1 °F 61% 29.97 in 10.0 mi Calm Calm - N/A   Clear
7:53 PM 43.0 °F - 34.0 °F 71% 30.01 in 10.0 mi Calm Calm - N/A   Clear
8:53 PM 41.0 °F - 34.0 °F 76% 30.00 in 10.0 mi Calm Calm - N/A   Clear
9:53 PM 44.6 °F 40.2 °F 37.4 °F 76% 29.98 in 10.0 mi North 8.1 mph - N/A   Clear
10:33 PM 44.6 °F 42.2 °F 39.2 °F 81% 29.98 in 8.0 mi North 4.6 mph - N/A   Partly Cloudy
10:53 PM 45.0 °F 43.5 °F 41.0 °F 86% 30.01 in 6.0 mi Variable 3.5 mph - N/A   Mostly Cloudy
11:53 PM 46.0 °F 42.5 °F 42.1 °F 86% 30.00 in 4.0 mi NNE 6.9 mph - N/A   Overcast